Meteo Giornale » Osservazioni meteo Bahrain » Bahrain
ore: 02:00 - Osservazioni Meteo Bahrain
Lat. 26° 16' N Lon. 50° 39' E Alt. 2 metri s.l.m.
34 °C
Sereno
Temp. 24 Ore
34 °C
39 °C
Nord-Ovest
20.3 Km/h
Dew point 24 °C
Umidità 56 %
Visibilità 10 Km
Il sole sorge alle ore 05:17
Il sole tramonta alle ore 17:56
| Data e Ora | Cielo e Fenomeni | T °C | DP °C | Um. % | Pres. hPa | Vis. km | Vento km/h | |
|---|---|---|---|---|---|---|---|---|
| Oggi h: 02:00 | Sereno | 34 | 24 | 56 | 1002 | 10 | NO 20.3 | |
| Oggi h: 01:30 | Sereno | 35 | 23 | 49 | 1002 | 10 | NO 24 | |
| Oggi h: 01:00 | Sereno | 35 | 24 | 53 | 1002 | 10 | NO 22.2 | |
| Oggi h: 00:30 | Sereno | 35 | 24 | 53 | 1002 | 10 | NO 24 | |
| Oggi h: 00:00 | Sereno | 35 | 24 | 53 | 1002 | 10 | NO 24 | |
| Ieri h: 23:30 | Sereno | 35 | 25 | 56 | 1002 | 10 | NO 24 | |
| Ieri h: 23:00 | Sereno | 35 | 24 | 53 | 1002 | 10 | NO 27.8 | |
| Ieri h: 22:30 | Sereno | 36 | 24 | 50 | 1002 | 10 | NO 25.9 | |
| Ieri h: 22:00 | Sereno | 36 | 24 | 50 | 1002 | 10 | NO 25.9 | |
| Ieri h: 21:30 | Sereno | 36 | 24 | 50 | 1003 | 10 | NO 27.8 | |
| Ieri h: 21:00 | Sereno | 36 | 23 | 47 | 1003 | 10 | NO 27.8 | |
| Ieri h: 20:30 | Sereno | 36 | 24 | 50 | 1003 | 10 | NO 29.6 | |
| Ieri h: 20:00 | Sereno | 36 | 24 | 50 | 1002 | 10 | NO 29.6 | |
| Ieri h: 19:30 | Sereno | 36 | 24 | 50 | 1002 | 10 | NO 27.8 | |
| Ieri h: 19:00 | Sereno | 36 | 24 | 50 | 1002 | 10 | N/NO 33.3 | |
| Ieri h: 18:30 | Sereno | 36 | 23 | 47 | 1002 | 10 | N/NO 35.2 | |
| Ieri h: 18:00 | Sereno | 36 | 24 | 50 | 1001 | 10 | N/NO 33.3 | |
| Ieri h: 17:30 | Sereno | 37 | 24 | 47 | 1001 | 10 | NO 33.3 | |
| Ieri h: 17:00 | Sereno | 37 | 24 | 47 | 1001 | 10 | N/NO 33.3 | |
| Ieri h: 16:30 | Sereno | 37 | 24 | 47 | 1001 | 10 | N/NO 33.3 | |
| Ieri h: 16:00 | Sereno | 38 | 24 | 45 | 1001 | 10 | N/NO 33.3 | |
| Ieri h: 15:30 | Sereno | 38 | 23 | 42 | 1001 | 10 | N/NO 37 | |
| Ieri h: 15:00 | Sereno | 38 | 24 | 45 | 1001 | 10 | N/NO 35.2 | |
| Ieri h: 14:30 | Sereno | 38 | 24 | 45 | 1001 | 10 | NO 42.6 | |
| Ieri h: 14:00 | Sereno | 38 | 25 | 47 | 1001 | 10 | N/NO 38.8 | |
| Ieri h: 13:00 | Sereno | 39 | 22 | 37 | 1001 | 10 | N/NO 35.2 | |
| Ieri h: 12:00 | Sereno | 39 | 23 | 40 | 1002 | 10 | N 33.3 | |
| Ieri h: 11:00 | Sereno | 39 | 25 | 45 | 1002 | 10 | N/NO 27.8 | |
| Ieri h: 10:30 | Sereno | 39 | 24 | 42 | 1002 | 10 | N/NO 33.3 | |
| Ieri h: 10:00 | Sereno | 39 | 24 | 42 | 1002 | 10 | N/NO 35.2 | |
| Ieri h: 09:30 | Sereno | 38 | 25 | 47 | 1002 | 10 | N/NO 33.3 | |
| Ieri h: 09:00 | Sereno | 38 | 24 | 45 | 1002 | 10 | N/NO 31.5 | |
| Ieri h: 08:30 | Sereno | 38 | 24 | 45 | 1002 | 10 | N/NO 31.5 | |
| Ieri h: 08:00 | Sereno | 37 | 25 | 50 | 1002 | 10 | N/NO 27.8 | |
| Ieri h: 07:00 | Sereno | 37 | 25 | 50 | 1002 | 10 | N/NO 31.5 | |
| Ieri h: 06:00 | Sereno | 36 | 25 | 53 | 1001 | 10 | N/NO 25.9 | |
| Ieri h: 05:30 | Sereno | 36 | 25 | 53 | 1001 | 10 | N/NO 22.2 | |
| Ieri h: 05:00 | Sereno | 36 | 26 | 56 | 1001 | 10 | NO 27.8 | |
| Ieri h: 04:30 | Sereno | 36 | 26 | 56 | 1001 | 10 | NO 29.6 | |
| Ieri h: 04:00 | Sereno | 35 | 27 | 63 | 1000 | 10 | NO 27.8 | |
| Ieri h: 03:30 | Sereno | 35 | 27 | 63 | 1000 | 10 | NO 27.8 | |
| Ieri h: 03:00 | Sereno | 36 | 26 | 56 | 1000 | 10 | NO 27.8 | |



